Temperature
15 15 15 15 15 15 14 14 13 14 15 15 15 14 14 14 13 13 13 12 12 11 10 10 10 9 9 9 8 8 8 8 7 7 7 7 7 6 6 6 6 5 5 4
13 14 14 14 14 14 14 14 14 14 14 15 15 14 13 13 12 12 12 12 11 10 10 9 9 8 8 8 7 7 7 7 7 6 6 6 6 6 5 5 5 5 4 4
11 13 13 12 14 14 14 15 15 14 14 14 13 12 12 12 12 12 11 10 10 9 9 8 8 7 7 7 7 6 6 6 6 6 5 5 5 5 5 4 4 4 3 3
10 11 9 12 16 16 15 14 14 14 13 12 12 12 12 12 12 11 10 9 9 8 8 7 7 7 6 6 6 6 6 5 5 4 4 4 3 3 3 3 2 2 2 2
9 9 10 13 14 14 14 13 14 13 12 12 12 11 11 11 10 9 9 8 8 7 7 7 6 6 5 5 5 5 5 4 4 3 3 2 2 2 2 1 1 1 1 1
9 8 8 13 12 13 12 11 12 12 11 11 10 7 8 10 9 8 8 7 7 7 6 6 6 5 5 5 4 4 3 3 2 2 2 1 1 1 1 0 0 0 -0 -0
8 8 9 13 12 12 11 11 12 12 11 10 9 8 9 8 8 7 7 6 6 6 5 5 5 4 4 4 3 3 2 2 2 1 1 1 0 0 -0 -0 -1 -1 -1 -1
8 8 8 12 12 11 11 12 12 11 10 9 8 8 8 7 7 6 6 6 5 5 5 5 4 4 3 3 2 2 1 1 1 0 0 -0 -1 -1 -1 -1 -1 -1 -2 -2
10 10 13 13 13 12 12 11 10 9 8 8 7 7 7 6 6 5 5 5 4 4 4 4 3 3 2 2 1 1 0 0 -0 -0 -1 -1 -1 -1 -2 -2 -2 -2 -2 -3
10 11 12 13 12 11 10 9 8 8 7 7 6 6 5 5 5 4 4 4 4 3 3 3 2 2 1 1 0 -0 -1 -1 -1 -1 -1 -1 -2 -2 -2 -2 -3 -3 -3 -3
9 10 11 11 10 9 8 7 7 6 6 5 5 5 4 4 4 3 3 3 3 2 2 2 1 1 0 -0 -1 -1 -1 -1 -1 -2 -2 -2 -2 -3 -3 -3 -3 -3 -3 -4
8 9 8 8 8 7 6 6 5 5 5 4 4 4 4 3 3 3 2 2 2 2 1 1 0 -0 -0 -1 -1 -2 -2 -2 -2 -2 -3 -3 -3 -3 -3 -3 -3 -3 -4 -4
8 7 7 7 6 6 5 5 4 4 4 4 3 3 3 3 2 2 2 2 1 1 0 -0 -0 -1 -1 -1 -2 -2 -3 -3 -3 -3 -3 -4 -4 -4 -4 -4 -4 -4 -4 -4
6 6 6 5 5 5 4 4 4 4 3 3 3 3 2 2 2 1 1 1 0 -0 -0 -1 -1 -1 -1 -2 -3 -3 -3 -3 -4 -4 -4 -4 -4 -4 -4 -4 -4 -4 -4 -4
5 5 4 4 4 4 4 3 3 3 3 3 2 2 1 1 1 1 1 0 -0 -1 -1 -1 -2 -2 -2 -3 -3 -3 -4 -4 -4 -4 -4 -4 -4 -4 -4 -4 -5 -5 -5 -5
4 4 4 4 4 3 3 3 2 2 2 2 1 1 1 0 0 0 -0 -1 -1 -1 -2 -2 -2 -2 -3 -3 -4 -4 -4 -4 -4 -4 -4 -4 -4 -4 -5 -5 -5 -5 -5 -5
4 3 3 3 3 3 2 2 2 1 1 1 1 0 0 -0 -1 -1 -1 -1 -2 -2 -2 -3 -3 -3 -3 -4 -4 -5 -5 -4 -4 -4 -4 -4 -5 -5 -5 -5 -5 -5 -5 -5
3 3 3 2 2 2 2 1 1 1 1 0 0 -0 -0 -1 -1 -1 -2 -2 -2 -3 -3 -3 -3 -4 -4 -4 -5 -5 -5 -5 -5 -4 -5 -5 -5 -5 -5 -5 -6 -6 -6 -6
3 3 2 2 2 1 1 1 1 0 0 -0 -0 -1 -1 -1 -2 -2 -2 -3 -3 -4 -3 -4 -4 -4 -5 -5 -5 -5 -5 -5 -5 -5 -5 -5 -5 -5 -5 -6 -6 -6 -6 -6
3 2 2 2 2 1 1 1 0 0 -0 -0 -1 -1 -1 -2 -2 -3 -3 -4 -4 -4 -4 -5 -5 -5 -5 -5 -5 -5 -5 -5 -5 -5 -5 -5 -5 -5 -6 -6 -6 -6 -6 -6
2 2 2 1 1 1 1 0 0 -0 -0 -1 -1 -2 -2 -2 -3 -3 -4 -4 -4 -4 -5 -5 -5 -5 -5 -5 -5 -5 -5 -5 -5 -5 -5 -5 -6 -6 -6 -6 -6 -6 -7 -7
2 1 1 1 1 1 0 -0 -0 -1 -1 -1 -2 -2 -2 -3 -3 -4 -4 -5 -5 -5 -6 -6 -6 -6 -6 -6 -5 -5 -5 -5 -5 -5 -5 -6 -6 -6 -6 -6 -7 -7 -7 -7
1 1 1 1 0 -0 -0 -0 -1 -1 -1 -2 -2 -2 -3 -4 -4 -5 -5 -5 -5 -6 -6 -6 -6 -6 -6 -5 -5 -5 -5 -5 -5 -5 -5 -6 -6 -6 -7 -7 -7 -7 -7 -7
1 1 0 0 -0 -1 -1 -1 -1 -1 -2 -2 -2 -3 -4 -4 -5 -5 -5 -6 -6 -6 -6 -6 -6 -6 -6 -6 -5 -5 -5 -5 -5 -5 -6 -6 -6 -7 -7 -7 -7 -7 -7 -7
0 0 -0 -0 -1 -1 -1 -1 -2 -2 -2 -3 -3 -3 -4 -5 -5 -6 -6 -6 -6 -7 -6 -6 -6 -6 -6 -6 -6 -5 -5 -5 -5 -5 -6 -6 -7 -7 -7 -7 -7 -7 -7 -7
-0 -1 -1 -1 -1 -1 -2 -2 -2 -3 -3 -3 -4 -4 -4 -5 -6 -6 -6 -6 -7 -7 -7 -7 -6 -6 -6 -6 -6 -5 -5 -5 -5 -6 -6 -7 -7 -7 -8 -8 -8 -7 -7 -7
-1 -1 -1 -2 -2 -2 -2 -3 -3 -3 -4 -4 -4 -5 -5 -6 -6 -6 -7 -7 -7 -7 -7 -7 -7 -7 -6 -6 -6 -6 -6 -6 -6 -6 -6 -7 -7 -7 -8 -8 -8 -8 -8 -7
Wind_Speed
12 13 13 14 15 13 14 14 16 19 20 18 10 5 6 7 7 6 7 6 5 6 7 8 8 8 7 7 6 6 7 8 9 9 9 10 10 10 10 10 12 11 12 13
12 12 13 18 19 18 18 16 16 18 18 7 3 5 7 8 8 8 7 6 7 9 9 8 8 8 8 7 7 7 8 10 10 10 10 10 11 11 11 11 11 11 12 13
6 7 11 12 13 12 9 8 8 10 7 4 5 7 8 9 10 8 6 8 9 9 8 8 8 8 8 8 7 8 10 11 11 11 11 11 12 11 12 12 11 12 12 13
5 6 9 10 6 3 4 6 7 7 4 5 4 5 7 9 7 8 10 10 9 9 8 8 8 9 8 7 8 10 11 12 12 11 12 11 11 12 12 11 11 11 12 12
3 6 11 10 5 3 3 6 4 3 5 6 7 8 7 7 9 9 10 9 9 8 8 8 9 8 7 9 10 11 12 13 12 10 11 11 12 12 11 11 11 11 10 11
5 5 7 6 2 3 3 4 5 6 7 8 9 9 7 8 10 10 10 9 9 8 8 9 9 8 9 11 12 12 13 11 10 10 11 12 13 12 11 10 11 11 11 10
7 6 9 4 4 1 2 3 5 6 7 8 7 7 9 11 10 9 9 9 9 8 8 8 9 10 12 12 12 12 11 11 11 11 12 13 12 11 11 11 11 11 12 11
6 7 8 2 2 1 4 6 7 8 8 9 9 10 11 11 10 9 9 8 8 8 9 9 10 11 13 14 13 12 11 12 12 12 12 11 12 12 11 11 11 11 11 11
6 7 4 2 4 6 7 8 8 9 9 10 11 11 11 10 9 8 8 8 7 8 10 11 10 10 15 16 13 12 12 12 12 12 12 11 12 13 11 10 10 10 10 11
6 7 8 9 9 9 9 9 10 10 10 10 11 11 10 9 8 8 7 8 8 10 12 14 13 13 14 14 13 13 13 13 12 13 13 12 10 9 10 10 10 11 11 11
10 10 11 7 9 11 12 11 11 11 10 10 10 10 9 8 8 7 8 8 9 10 13 16 15 13 13 13 13 13 13 13 12 12 13 12 11 10 12 11 12 13 11 10
11 9 9 10 10 11 11 11 10 10 10 9 9 9 9 7 7 8 10 10 11 12 13 15 15 15 14 12 12 13 12 12 11 11 11 11 12 13 15 17 23 24 22 19
7 8 8 10 9 9 9 10 10 9 9 9 8 7 7 8 8 9 11 12 13 14 15 16 15 15 13 12 12 12 13 13 12 11 12 12 12 13 14 15 18 20 20 21
7 7 8 8 8 8 8 8 8 8 8 8 7 7 8 9 10 11 12 13 14 16 16 15 15 15 14 13 12 12 13 16 15 12 12 12 12 12 12 14 14 11 13 18
7 7 8 9 8 7 7 7 8 8 8 8 8 9 10 12 13 14 14 15 15 14 14 15 16 17 15 13 12 13 13 12 12 12 12 12 12 12 12 12 12 12 9 10
8 8 7 7 7 7 7 8 8 9 9 9 10 11 11 12 14 15 15 13 13 15 15 16 16 17 14 13 12 12 12 19 18 14 12 12 11 11 11 11 12 11 10 8
5 6 6 7 8 8 8 8 8 9 10 11 12 13 13 14 15 15 14 13 13 14 15 16 17 15 13 12 12 12 12 14 20 16 12 12 11 11 11 11 11 10 9 9
5 6 6 7 7 8 9 9 9 11 12 13 14 13 13 14 16 17 16 15 15 15 15 15 14 14 13 12 12 11 12 12 12 12 12 11 12 11 11 11 10 10 8 8
6 7 7 8 8 8 9 11 11 11 12 12 12 13 13 14 15 15 15 16 17 19 15 12 21 17 13 14 17 11 12 13 13 12 11 14 14 10 10 10 9 9 7 6
8 8 9 10 10 10 11 12 12 12 11 11 12 14 15 15 14 15 15 15 14 13 13 17 16 13 12 13 19 12 12 14 14 13 12 11 11 10 9 9 9 7 6 5
9 10 11 11 12 12 11 11 11 12 12 11 12 14 16 15 14 13 14 16 13 12 14 21 14 12 12 15 20 13 13 13 13 12 11 11 10 10 9 8 7 6 5 4
9 10 11 11 12 12 10 9 10 13 13 13 13 13 14 15 14 13 12 13 14 19 15 11 11 17 21 23 13 12 12 12 12 11 10 10 10 9 8 7 6 5 4 3
9 10 11 11 12 12 12 11 12 12 13 13 13 14 15 14 12 13 15 11 10 20 17 12 19 27 29 17 11 12 12 12 11 11 10 9 9 8 7 6 5 4 2 2
11 11 11 11 11 12 15 14 12 10 11 12 12 12 13 12 11 9 10 18 22 24 15 19 27 28 25 12 11 11 11 11 10 9 9 8 7 6 6 5 4 3 2 1
11 11 11 11 11 11 12 12 11 11 11 9 10 10 9 8 10 11 11 13 20 22 14 19 25 25 17 12 11 11 11 11 10 9 7 6 6 6 5 4 3 2 1 1
11 10 10 11 10 10 9 9 9 9 9 10 9 8 8 8 10 11 11 12 14 20 15 12 14 17 13 12 12 12 11 11 10 7 6 6 5 5 4 3 2 1 1 0
11 10 9 8 8 8 8 8 8 9 8 9 11 10 9 9 9 10 12 11 12 12 12 12 12 12 12 12 11 11 10 9 7 6 5 4 4 3 3 2 2 1 1 0
Wind_Direction
271 284 291 287 281 272 262 259 265 274 280 290 310 359 21 13 3 348 326 324 337 337 325 320 320 322 326 323 324 324 312 300 290 286 283 280 277 271 265 258 253 247 244 242
275 278 282 279 272 266 265 261 262 272 278 296 10 37 12 356 336 310 305 327 338 327 319 318 319 318 319 314 309 312 305 295 292 291 288 283 280 277 272 266 259 252 247 244
276 296 305 276 263 255 243 242 258 274 292 13 21 21 358 328 302 300 328 336 325 319 318 316 313 312 308 298 304 307 296 290 288 285 282 279 279 278 273 269 264 257 252 246
285 309 253 249 285 281 279 287 298 297 334 32 17 348 316 301 323 343 337 327 322 319 315 309 305 303 298 303 306 299 292 288 284 279 277 277 275 274 272 269 265 261 257 251
253 265 276 274 289 332 317 291 305 333 11 1 339 327 311 332 353 334 325 321 317 313 310 308 306 308 316 311 303 296 290 285 281 278 279 280 278 277 275 273 270 264 260 253
222 235 254 278 78 40 10 294 37 28 356 339 343 324 306 333 330 322 321 317 313 311 310 309 310 323 318 304 297 291 287 285 288 290 288 285 283 282 279 274 273 270 266 258
235 245 262 282 126 71 267 300 359 348 335 333 318 292 305 321 320 315 310 310 312 312 308 306 315 316 302 295 291 290 293 297 296 292 288 287 287 284 282 279 277 273 271 266
202 220 254 148 123 247 295 331 336 340 338 327 313 310 313 313 313 313 313 313 315 313 309 308 307 304 300 297 296 297 298 297 294 292 292 293 290 288 284 282 281 278 277 275
205 224 277 59 328 325 343 343 347 342 333 326 316 312 312 312 313 313 313 313 316 315 308 303 301 300 298 298 300 301 300 298 297 296 294 292 292 293 292 287 283 282 278 278
276 283 312 322 328 348 357 347 338 334 329 324 314 313 315 314 311 311 312 314 313 309 304 302 300 294 291 297 302 302 300 299 297 298 297 294 291 290 289 287 284 282 281 279
280 289 300 315 344 347 343 341 335 331 325 319 315 311 309 308 309 312 310 304 303 299 296 297 298 297 298 299 301 300 298 297 298 295 294 295 290 287 286 276 277 282 279 274
280 309 318 322 338 342 337 331 326 322 318 315 309 303 306 306 305 302 300 298 298 295 293 297 300 299 299 298 299 300 301 299 298 296 296 295 295 294 287 285 291 289 285 281
316 336 324 319 330 336 322 317 316 311 306 305 306 305 306 301 297 296 296 298 298 298 298 299 300 300 302 304 302 298 297 298 298 296 296 295 295 297 300 300 295 293 292 289
334 334 320 323 317 315 312 311 307 300 298 299 303 305 303 298 297 297 298 298 297 297 297 299 302 304 306 306 302 297 296 298 299 295 293 292 293 294 296 298 301 296 292 291
335 331 309 305 306 313 316 313 311 307 306 306 307 303 299 298 297 297 297 296 296 297 300 303 304 303 304 302 298 297 299 298 296 293 291 290 291 291 291 291 292 294 293 291
320 315 309 311 313 316 322 322 317 310 308 304 302 298 295 293 293 295 296 299 304 305 304 302 299 300 301 299 298 300 299 298 300 296 294 294 292 292 292 292 293 292 292 289
306 306 311 312 313 314 315 315 309 306 305 302 299 297 296 297 299 301 303 303 298 297 297 297 297 298 298 298 299 301 299 299 299 297 295 294 293 293 292 292 292 291 289 284
265 272 278 284 291 297 299 299 297 296 295 293 295 297 300 303 304 303 304 305 304 300 297 294 295 301 300 300 301 299 298 297 297 297 297 296 295 293 292 291 291 291 291 288
266 272 277 281 283 286 288 290 290 287 288 292 297 300 299 297 297 300 305 306 306 305 303 297 305 309 303 303 307 300 299 299 300 298 296 299 300 294 292 291 290 288 288 287
270 274 276 278 278 277 280 283 286 291 295 300 300 300 299 298 298 300 301 298 295 293 297 303 307 304 303 304 307 302 301 300 300 300 300 299 297 295 294 292 291 291 288 282
268 273 275 276 277 275 275 282 293 298 299 298 295 295 296 297 298 298 301 303 299 296 302 309 311 306 307 308 309 305 302 301 302 302 302 302 300 298 296 296 295 292 286 274
267 270 274 277 282 286 287 289 291 293 295 294 291 292 296 299 299 297 289 292 299 306 312 307 306 307 313 313 308 305 303 302 301 300 300 299 299 300 299 299 296 294 283 263
275 278 283 286 288 290 292 290 286 285 286 288 290 292 293 293 296 299 302 301 303 309 314 306 310 313 315 316 308 305 303 302 301 301 301 301 302 304 304 302 300 296 283 260
276 277 278 280 283 288 289 288 282 279 278 280 280 280 285 294 295 289 290 305 313 312 311 309 314 316 318 315 307 305 304 302 301 301 303 305 306 305 304 303 303 301 282 243
271 273 275 277 280 280 280 284 287 284 281 281 280 280 281 283 293 301 303 305 310 314 312 313 315 317 317 308 307 306 306 303 304 307 309 311 309 308 307 308 310 309 295 257
272 272 272 269 270 274 277 279 281 283 287 292 293 292 291 293 295 301 304 305 305 310 313 311 312 313 312 310 309 309 309 309 310 312 310 309 312 315 318 321 322 322 321 317
272 271 274 275 272 267 268 270 275 281 284 290 296 298 299 300 301 303 304 307 309 310 311 312 313 312 312 311 310 310 309 308 308 307 309 313 316 317 323 327 329 336 352 20
Height
1503 1499 1497 1496 1494 1493 1495 1493 1494 1484 1479 1472 1470 1469 1469 1469 1468 1467 1466 1465 1463 1461 1459 1457 1454 1450 1447 1443 1439 1435 1430 1426 1421 1417 1412 1407 1403 1399 1395 1391 1387 1384 1380 1377
1504 1498 1495 1492 1486 1484 1483 1481 1480 1477 1473 1468 1467 1467 1468 1468 1467 1466 1464 1462 1460 1458 1455 1452 1449 1445 1441 1437 1433 1429 1424 1419 1414 1409 1404 1399 1394 1390 1385 1381 1378 1374 1370 1367
1507 1498 1497 1493 1477 1474 1473 1470 1472 1474 1470 1466 1466 1467 1468 1467 1466 1463 1461 1459 1457 1454 1451 1447 1444 1440 1435 1431 1427 1422 1417 1411 1406 1400 1395 1390 1386 1381 1376 1372 1368 1364 1360 1357
1509 1505 1512 1484 1467 1466 1467 1467 1467 1467 1466 1466 1467 1467 1467 1466 1463 1461 1458 1456 1453 1449 1446 1442 1438 1434 1430 1425 1420 1415 1409 1403 1398 1393 1387 1382 1377 1372 1368 1363 1359 1355 1351 1348
1510 1508 1494 1476 1468 1467 1468 1468 1465 1465 1465 1466 1465 1464 1464 1464 1461 1458 1455 1452 1448 1445 1441 1437 1433 1429 1424 1419 1413 1407 1402 1396 1391 1386 1380 1375 1369 1364 1360 1355 1350 1346 1342 1338
1506 1508 1503 1476 1471 1468 1471 1473 1468 1466 1467 1466 1464 1466 1462 1460 1458 1454 1451 1448 1444 1440 1436 1432 1428 1423 1417 1411 1406 1400 1395 1390 1385 1379 1373 1367 1362 1357 1352 1347 1342 1337 1333 1329
1505 1503 1489 1470 1470 1470 1478 1475 1469 1467 1466 1465 1464 1463 1458 1455 1452 1450 1446 1442 1439 1435 1431 1427 1423 1417 1410 1404 1399 1393 1388 1382 1377 1372 1366 1360 1354 1349 1344 1338 1333 1328 1324 1320
1498 1499 1491 1470 1470 1473 1473 1468 1466 1464 1463 1462 1459 1456 1453 1450 1447 1444 1440 1437 1434 1430 1426 1422 1417 1411 1403 1397 1392 1387 1381 1375 1369 1363 1358 1353 1347 1341 1336 1331 1325 1320 1315 1310
1480 1480 1470 1468 1469 1469 1468 1466 1464 1463 1461 1458 1455 1451 1448 1445 1442 1439 1436 1433 1429 1425 1420 1415 1410 1405 1397 1390 1385 1379 1373 1367 1361 1355 1350 1345 1339 1333 1328 1323 1318 1312 1307 1302
1474 1469 1467 1467 1467 1467 1466 1464 1462 1460 1457 1454 1451 1447 1444 1441 1438 1435 1431 1428 1424 1419 1413 1407 1402 1397 1391 1384 1378 1372 1365 1359 1353 1347 1342 1337 1332 1327 1321 1316 1310 1305 1300 1295
1471 1469 1466 1466 1466 1464 1462 1460 1457 1455 1453 1450 1447 1443 1440 1437 1434 1430 1427 1423 1418 1413 1406 1400 1394 1389 1384 1378 1371 1364 1358 1352 1346 1340 1334 1328 1323 1319 1314 1309 1305 1299 1293 1289
1470 1468 1468 1465 1464 1462 1459 1457 1454 1451 1448 1446 1443 1439 1436 1433 1429 1426 1421 1417 1411 1406 1400 1393 1387 1381 1376 1371 1365 1358 1350 1344 1338 1332 1327 1321 1315 1310 1306 1302 1297 1293 1288 1283
1467 1465 1464 1463 1461 1459 1456 1453 1450 1448 1445 1441 1439 1436 1432 1428 1424 1420 1416 1411 1405 1399 1393 1386 1380 1374 1369 1363 1357 1351 1344 1337 1331 1325 1320 1314 1309 1303 1296 1292 1289 1285 1280 1276
1464 1463 1460 1459 1457 1455 1452 1449 1446 1444 1441 1438 1435 1431 1428 1423 1419 1414 1409 1404 1398 1392 1386 1380 1373 1367 1361 1355 1349 1343 1336 1330 1324 1318 1313 1308 1303 1297 1291 1285 1279 1275 1272 1269
1461 1460 1458 1456 1453 1451 1448 1446 1442 1440 1437 1434 1430 1427 1423 1418 1412 1407 1402 1397 1391 1384 1379 1372 1365 1358 1353 1347 1341 1335 1329 1322 1317 1311 1306 1301 1296 1291 1285 1280 1274 1269 1264 1261
1457 1456 1454 1452 1450 1448 1445 1442 1439 1436 1432 1429 1425 1421 1417 1412 1406 1400 1395 1390 1384 1377 1370 1364 1357 1351 1345 1340 1333 1327 1321 1315 1310 1305 1299 1294 1289 1284 1279 1274 1269 1264 1259 1256
1454 1452 1450 1448 1446 1444 1442 1439 1436 1432 1428 1423 1419 1414 1409 1404 1398 1392 1387 1382 1376 1369 1363 1356 1349 1344 1338 1332 1326 1319 1313 1308 1303 1298 1293 1287 1282 1277 1273 1268 1263 1258 1254 1251
1451 1450 1448 1446 1443 1440 1437 1434 1431 1427 1422 1418 1413 1408 1403 1398 1391 1385 1379 1372 1366 1359 1354 1349 1343 1336 1331 1325 1319 1313 1307 1301 1296 1291 1286 1281 1276 1271 1267 1262 1258 1254 1250 1247
1447 1446 1444 1442 1439 1436 1432 1428 1425 1421 1416 1412 1407 1402 1396 1391 1385 1378 1372 1365 1357 1350 1344 1341 1335 1329 1323 1318 1312 1306 1301 1295 1290 1285 1280 1275 1270 1265 1261 1257 1253 1249 1246 1243
1443 1442 1439 1437 1434 1431 1427 1422 1419 1414 1410 1406 1400 1394 1388 1383 1377 1370 1364 1358 1352 1346 1339 1334 1328 1322 1316 1310 1305 1300 1295 1289 1284 1278 1274 1269 1264 1259 1255 1252 1248 1245 1242 1239
1439 1436 1434 1431 1427 1424 1421 1417 1413 1407 1403 1399 1393 1387 1381 1375 1370 1364 1357 1349 1343 1339 1333 1327 1321 1315 1310 1304 1299 1294 1288 1283 1278 1273 1268 1263 1259 1254 1250 1247 1244 1240 1238 1236
1434 1431 1428 1425 1421 1417 1414 1410 1406 1400 1395 1390 1385 1380 1374 1367 1362 1356 1351 1345 1338 1333 1327 1320 1315 1309 1304 1299 1293 1288 1282 1277 1272 1268 1263 1258 1254 1250 1246 1243 1240 1237 1235 1233
1428 1425 1421 1418 1414 1409 1405 1401 1397 1392 1387 1383 1378 1373 1367 1361 1356 1350 1342 1337 1332 1326 1321 1314 1309 1303 1298 1293 1287 1282 1277 1272 1267 1263 1258 1254 1250 1246 1242 1239 1237 1234 1233 1232
1420 1417 1413 1410 1406 1401 1395 1391 1388 1384 1380 1375 1371 1366 1361 1354 1348 1344 1339 1332 1326 1320 1314 1308 1303 1298 1292 1287 1282 1277 1272 1267 1263 1258 1254 1250 1246 1242 1239 1236 1234 1232 1231 1230
1412 1408 1404 1401 1396 1392 1387 1383 1379 1375 1371 1367 1363 1359 1355 1350 1344 1337 1331 1325 1320 1314 1308 1302 1297 1292 1287 1282 1277 1272 1268 1263 1259 1254 1250 1246 1242 1239 1236 1234 1232 1231 1230 1229
1403 1399 1395 1392 1388 1384 1380 1376 1372 1368 1364 1359 1355 1351 1347 1342 1337 1331 1325 1319 1314 1308 1303 1297 1292 1287 1282 1277 1273 1268 1263 1259 1254 1250 1246 1242 1239 1237 1234 1232 1231 1229 1229 1228
1393 1389 1386 1382 1379 1376 1373 1369 1365 1361 1357 1353 1348 1343 1339 1334 1329 1324 1319 1313 1308 1302 1297 1292 1287 1282 1278 1273 1268 1264 1259 1255 1251 1247 1243 1240 1237 1235 1233 1231 1230 1229 1228 1228